Regional Weather Roundup
Issued by NWS

Home | Current Version | Previous Version | Graphics & Text | Print | Product List | Glossary On
Versions: 1 2 3 4 5 6 7 8 9 10 11 12 13 14 15 16 17 18 19 20 21 22 23 24 25 26 27 28 29 30 31 32 33 34 35 36 37 38 39 40 41 42 43 44 45 46 47 48 49 50
000
ASUS45 KBOI 031210
RWRID

IDAHO REGIONAL WEATHER ROUNDUP
NATIONAL WEATHER SERVICE BOISE ID
600 AM MDT THU SEP 03 2015

NOTE: "FAIR" INDICATES FEW OR NO CLOUDS BELOW 12000 FEET
WITH NO SIGNIFICANT WEATHER AND/OR OBSTRUCTIONS TO VISIBILITY

IDZ012-014-031300-
SOUTHWEST IDAHO


CITY           SKY/WX    TMP DP  RH WIND       PRES   REMARKS
BOISE          CLOUDY    57  43  59 NW13      29.86S
CALDWELL       CLOUDY    57  36  44 NW13      29.89S
MOUNTAIN HOME  CLOUDY    60  42  50 NW16      29.86R
$$

IDZ016-017-031300-
SOUTHCENTRAL IDAHO


CITY           SKY/WX    TMP DP  RH WIND       PRES   REMARKS
BURLEY         PTCLDY    60  38  43 W14G21    29.86S
JEROME         PTCLDY    55  39  54 S7        29.89R
TWIN FALLS     CLEAR     59  34  39 SW12      29.90R
$$

IDZ019>023-031300-
SOUTHEAST IDAHO


CITY           SKY/WX    TMP DP  RH WIND       PRES   REMARKS
IDAHO FALLS    PTCLDY    63  39  41 S17G29    29.87R
POCATELLO      CLEAR     63  38  39 SW20      29.89R
REXBURG        PTCLDY    60  43  53 S6        29.85R
$$

IDZ006-010-011-018-031-032-031300-
CENTRAL IDAHO MOUNTAINS


CITY           SKY/WX    TMP DP  RH WIND       PRES   REMARKS
MCCALL         MOCLDY    47  43  86 NW5       29.93R
HAILEY         CLOUDY    54  37  54 CALM      29.90S
STANLEY          N/A     47  31  53 CALM      29.94R
SALMON         CLOUDY    55  41  58 E5        29.83S
CHALLIS        CLOUDY    53  35  50 CALM      29.83R
$$

IDZ002-004-006-007-026-031300-
NORTHERN IDAHO


CITY           SKY/WX    TMP DP  RH WIND       PRES   REMARKS
LEWISTON       CLOUDY    60  48  64 N5        29.91R
LOWELL           N/A     55  53  93 S3        29.95R
COEUR D`ALENE  PTCLDY    54  43  66 S13       29.89S
MULLAN PASS    CLOUDY    40  35  83 VRB3      29.94S
$$



USA.gov is the U.S. government's official web portal to all federal, state and local government web resources and services.